Погода в Алексеевке

Россия / Республика Мордовия     54°25′47″N   45°50′37″E
темп.,
°C
ветер,
м/с
пор.,
м/с
влажн.,
%
обл.,
%
осадки,
мм/ч
давл.,
гПа
погр.,
м
9 мая, вс
вс900:00+11ююв348999 0.0 101061
03:00+10юв41084100 0.0 1010178
06:00+12ююв61575100 0.0 1009389
09:00+16ююв71468100 0.0 1009677
12:00+16ююв71373100 0.3 1009927
15:00+19ю71367100 0.5 10081553
18:00+16юз41073100 1.4 1009369
21:00+11зюз489399 1.4 1013355
10 мая, пн
пн1000:00+10з1495100 0.0 1015271
03:00+9ссз2597100 0.9 1016253
06:00+9ссв4896100 0.7 1018340
09:00+10с4595100 1.2 1020403
12:00+11ссв788999 0.4 1021544
15:00+12с7884100 0.4 1022648
18:00+11ссв81389100 0.0 1023435
21:00+9ссв51392100 0.0 1024369
11 мая, вт
вт1100:00+9ссв6139398 0.0 1024347
03:00+8св51295100 0.0 1025281
06:00+9св61391100 0.0 1026339
09:00+14всв6981100 0.0 1026389
12:00+18всв6768100 0.0 1026622
15:00+19всв5868100 0.0 1026787
18:00+18всв5107876 0.1 1026431
21:00+14всв4118966 0.1 1027185
12 мая, ср
ср1200:00+13всв4118641 0.0 1026182
03:00+12всв410835 0.0 1026146
06:00+14в5137657 0.0 1027308
09:00+19вюв6106310 0.0 1027593
12:00+21вюв7104881 0.0 10271598
15:00+22вюв695112 0.0 10261637
18:00+19в5116268 0.0 1026412
21:00+15вюв4117078 0.0 1026181
13 мая, чт
чт1300:00+14ююв2573100 0.0 1026103
03:00+14всв3670100 0.0 1025101
06:00+15в4117237 0.0 1025294
09:00+19вюв7125752 0.0 1024676
12:00+21вюв7104983 0.0 10231206
15:00+17вюв7127489 0.1 1023474
18:00+19вюв611664 0.1 1022524
21:00+14вюв4138111 0.3 1022248